FW5469 Weather Reports


Display with metric or nautical units.
time (UTC)temp
F
wind
direction
speed
MPH
gust
MPH
rain 1hr
in
rain 24hr
in
rain mn
in
humidity
%
barometer
mb
20260505101603 64 234 2.0 11.0 0.00 0.03 0.00 68 1003.3
20260505100057 65 152 5.0 14.0 0.00 0.03 0.00 68 1003.0
20260505094601 65 224 3.0 16.0 0.00 0.03 0.00 67 1002.8
20260505093058 66 233 5.0 16.0 0.00 0.03 0.00 65 1002.5
20260505091559 66 205 2.0 13.0 0.00 0.03 0.00 65 1002.3
20260505090101 66 114 3.0 14.0 0.00 0.03 0.00 64 1002.0
20260505084557 67 188 4.0 15.0 0.00 0.03 0.00 64 1002.1
20260505083057 67 296 5.0 22.0 0.00 0.03 0.00 63 1002.1
20260505081601 67 155 4.0 13.0 0.00 0.03 0.00 64 1002.2
20260505080058 66 313 3.0 13.0 0.00 0.03 0.00 66 1002.0
20260505074610 66 198 4.0 16.0 0.00 0.03 0.00 67 1001.8
20260505073102 66 207 6.0 12.0 0.00 0.03 0.00 67 1001.6
20260505071553 66 225 5.0 8.0 0.00 0.03 0.00 68 1001.7
20260505070055 66 208 5.0 11.0 0.00 0.03 0.00 67 1001.6
20260505064553 67 216 5.0 12.0 0.00 0.03 0.00 65 1001.9
20260505063058 67 246 3.0 18.0 0.00 0.03 0.00 65 1001.8
20260505061619 67 198 4.0 11.0 0.00 0.03 0.00 66 1001.9
20260505060058 67 195 4.0 11.0 0.00 0.03 0.00 66 1002.1
20260505054609 67 205 5.0 13.0 0.00 0.03 0.00 65 1002.3
20260505053056 67 165 5.0 15.0 0.00 0.03 0.00 65 1002.4
20260505051558 67 179 4.0 17.0 0.00 0.03 0.00 65 1002.5
20260505041554 67 158 4.0 13.0 0.00 0.03 0.00 66 1002.8
20260505040059 66 250 5.0 13.0 0.00 0.03 0.00 66 1002.9
20260505034554 66 224 3.0 11.0 0.00 0.03 0.03 67 1002.9
20260505033056 66 221 5.0 13.0 0.00 0.03 0.03 66 1003.0
20260505031558 66 156 6.0 12.0 0.00 0.03 0.03 66 1003.2
20260505030059 67 181 3.0 11.0 0.00 0.03 0.03 65 1003.2
20260505024610 67 284 3.0 11.0 0.00 0.03 0.03 64 1003.1
20260505023058 67 221 4.0 16.0 0.00 0.03 0.03 64 1003.2
20260505021613 67 173 4.0 11.0 0.00 0.03 0.03 62 1003.1
20260505020053 68 162 4.0 12.0 0.00 0.03 0.03 61 1003.4
20260505014555 68 228 4.0 13.0 0.00 0.03 0.03 60 1003.5
20260505013058 68 193 4.0 12.0 0.00 0.03 0.03 59 1003.2
20260505011557 69 181 2.0 9.0 0.00 0.03 0.03 58 1003.0
20260505010056 70 250 4.0 10.0 0.00 0.03 0.03 56 1002.8
20260505004601 70 246 4.0 8.0 0.00 0.03 0.03 56 1002.6
20260505003058 70 227 3.0 8.0 0.00 0.03 0.03 56 1002.4
20260505001606 70 211 4.0 9.0 0.00 0.03 0.03 56 1002.3
20260505000107 71 260 1.0 12.0 0.00 0.03 0.03 56 1002.2
20260504234558 72 226 4.0 18.0 0.00 0.03 0.03 54 1001.9
20260504233107 73 217 4.0 13.0 0.00 0.03 0.03 54 1001.7
20260504231557 73 200 4.0 11.0 0.00 0.03 0.03 54 1001.7
20260504230058 73 225 3.0 14.0 0.00 0.03 0.03 54 1001.8
20260504224559 73 186 4.0 16.0 0.03 0.03 0.03 56 1001.9
20260504223103 72 239 5.0 9.0 0.03 0.03 0.03 62 1002.1
20260504221605 69 240 2.0 6.0 0.03 0.03 0.03 70 1002.3
20260504220135 67 224 1.0 8.0 0.03 0.03 0.03 77 1002.6
20260504214555 71 197 9.0 20.0 0.00 0.00 0.00 62 1002.9
20260504213123 74 208 4.0 14.0 0.00 0.00 0.00 53 1002.4
20260504211600 75 186 6.0 14.0 0.00 0.00 0.00 52 1002.5
20260504210104 74 189 6.0 14.0 0.00 0.00 0.00 52 1002.8
20260504204619 73 267 4.0 16.0 0.00 0.00 0.00 52 1003.0
20260504203108 73 218 4.0 20.0 0.00 0.00 0.00 51 1002.9
20260504201612 75 195 4.0 13.0 0.00 0.00 0.00 50 1003.2
20260504200111 74 194 5.0 15.0 0.00 0.00 0.00 49 1003.3
20260504194558 73 202 5.0 16.0 0.00 0.00 0.00 51 1003.4
20260504193101 74 162 5.0 13.0 0.00 0.00 0.00 51 1003.6
20260504191603 73 168 3.0 11.0 0.00 0.00 0.00 51 1003.8
20260504190057 73 139 4.0 16.0 0.00 0.00 0.00 52 1004.0
20260504184600 72 178 7.0 13.0 0.00 0.00 0.00 51 1004.3
20260504183105 73 227 5.0 15.0 0.00 0.00 0.00 47 1004.4
20260504181556 72 212 6.0 14.0 0.00 0.00 0.00 51 1004.3
20260504180056 72 212 4.0 15.0 0.00 0.00 0.00 50 1004.5
20260504174559 72 200 5.0 15.0 0.00 0.00 0.00 51 1004.9
20260504173059 72 236 4.0 12.0 0.00 0.00 0.00 50 1005.0
20260504171559 71 254 4.0 14.0 0.00 0.00 0.00 50 1005.3
20260504160107 68 226 4.0 13.0 0.00 0.00 0.00 56 1005.6